Probability
10 10 10 10 7 5 6 4 1 0 1 2 2 2 2 2 2 5 5 2 0 0 0 0 0 0 0 0 0 0 0 0 0 0 0 0 0 0
9 9 9 8 7 6 6 5 3 1 1 1 2 2 2 1 1 4 5 4 2 0 0 0 0 0 0 0 0 0 0 0 0 0 0 0 0 0
6 7 6 6 7 6 6 6 5 4 2 0 1 2 2 1 1 3 4 4 3 1 0 0 0 0 0 0 0 0 0 0 0 0 0 0 0 0
4 4 4 5 5 5 5 5 6 5 3 1 1 2 3 3 3 2 2 3 3 1 0 0 0 0 0 0 0 0 0 0 0 0 0 0 0 0
3 3 3 3 3 3 4 5 6 5 4 3 3 3 3 3 3 3 2 2 1 0 0 0 0 0 0 0 0 0 0 0 0 0 0 0 0 0
2 2 2 1 1 2 3 6 6 5 5 4 4 5 4 3 3 3 3 2 1 1 1 0 0 0 0 0 0 0 0 0 0 0 0 0 0 0
2 2 1 1 1 1 3 5 6 5 6 6 6 6 5 4 3 3 3 3 2 2 1 0 0 0 0 0 0 0 0 0 0 0 0 0 0 0
4 3 3 2 2 2 3 3 4 4 5 6 6 6 5 5 4 3 3 2 2 2 1 0 0 0 0 0 0 0 0 0 0 0 0 0 0 0
6 5 4 4 3 3 3 2 3 3 4 5 5 4 4 4 3 3 3 2 1 1 0 0 0 0 0 0 0 0 0 0 0 0 0 0 0 0
6 6 5 4 4 3 3 3 3 3 3 4 4 3 3 3 3 3 3 3 2 1 0 0 0 0 0 0 0 0 0 0 0 0 0 0 0 0
6 6 5 4 3 3 3 3 3 3 3 3 3 3 3 3 3 3 3 3 3 1 0 0 0 0 0 0 0 0 0 0 0 0 0 0 0 0
6 6 4 3 3 3 3 3 3 3 3 3 3 3 3 3 2 3 3 3 3 2 1 0 0 0 0 0 0 0 0 0 0 0 0 0 0 0
6 5 4 3 3 3 3 3 3 3 3 3 3 3 3 3 3 3 3 3 3 3 2 1 0 0 0 0 0 0 0 0 0 0 0 0 0 0
6 4 3 3 3 3 3 3 3 3 3 3 4 3 3 3 3 3 3 3 3 3 2 1 0 0 0 0 0 0 0 0 0 0 0 0 0 0
5 4 3 3 3 3 2 3 3 3 4 4 5 4 3 3 3 3 3 3 3 3 2 1 0 0 0 0 0 0 0 0 0 0 0 0 0 0
4 3 3 3 3 3 3 4 4 4 5 5 6 5 4 3 3 3 1 1 2 2 2 1 0 1 0 0 0 0 0 0 0 0 0 0 0 0
2 3 3 3 3 4 5 5 6 5 5 5 5 5 4 3 3 2 1 0 1 1 1 0 0 0 0 0 0 0 0 0 0 0 0 0 0 0
1 1 3 3 3 3 4 5 6 6 5 4 4 5 4 3 3 1 0 0 0 0 0 0 0 0 0 0 0 0 0 0 0 0 0 0 0 0
1 1 3 3 3 3 3 4 5 6 4 3 4 5 5 4 2 1 0 0 0 0 0 0 0 0 0 0 0 0 0 0 0 0 0 0 0 0
2 3 3 3 3 3 3 3 4 5 4 3 3 4 4 3 2 1 0 0 0 0 0 0 0 0 0 0 0 0 0 0 0 0 0 0 0 0
3 3 3 3 3 3 3 3 3 4 3 3 3 3 2 2 2 1 0 0 0 0 0 0 0 0 0 0 0 0 0 0 0 0 0 0 0 0
3 3 3 3 4 3 3 3 3 3 3 3 2 1 1 1 1 0 0 0 0 0 0 0 0 0 0 0 0 0 0 0 0 0 0 0 0 0
2 3 3 4 4 4 3 3 3 3 3 2 1 0 0 0 0 0 0 0 0 0 0 0 0 0 0 0 0 0 0 0 0 0 0 0 0 0
Wind_Speed
2 1 1 1 0 0 1 1 2 2 2 2 2 3 3 5 5 6 7 12 12 12 12 12 12 12 12 11 11 11 10 10 9 9 9 7 5 4
2 3 2 1 1 1 0 0 1 1 2 3 3 3 4 4 6 5 8 12 13 12 12 12 12 12 12 12 12 12 12 11 11 11 10 10 10 8
3 3 3 2 1 1 1 1 1 2 4 4 3 4 4 4 4 4 5 5 9 11 12 12 12 12 12 12 12 11 12 11 11 11 11 11 11 10
4 3 3 2 2 2 1 2 3 3 4 5 4 3 4 4 4 3 4 5 7 11 12 12 12 11 11 11 11 11 11 11 11 11 11 11 11 11
4 4 3 3 2 2 2 2 3 4 4 5 4 3 3 3 3 4 5 3 5 9 10 11 11 11 11 11 11 11 10 10 10 11 11 11 11 11
4 4 4 3 3 2 2 3 3 4 5 4 5 4 4 3 2 3 4 3 3 4 6 6 9 10 11 10 10 10 9 9 9 10 10 10 10 10
4 4 5 6 7 5 3 3 3 2 3 4 4 4 3 3 2 2 3 3 4 2 3 4 5 5 7 8 9 9 8 8 8 8 8 9 9 9
4 3 4 5 6 6 7 7 5 2 2 2 3 4 3 3 2 2 2 2 3 2 1 3 3 3 4 5 8 7 6 6 6 6 6 6 7 7
4 3 3 5 3 4 6 6 6 6 3 1 3 2 3 3 2 3 2 1 2 2 1 2 2 3 4 7 8 5 5 4 4 4 4 4 4 4
4 4 4 4 4 2 4 5 6 5 3 2 3 2 3 2 1 2 3 3 3 2 0 1 2 2 3 5 9 6 5 3 3 2 2 1 1 1
4 4 3 4 4 3 4 5 5 5 6 6 4 4 4 2 0 1 2 3 3 3 1 1 1 1 2 3 7 9 7 5 4 3 2 2 2 4
4 4 5 4 3 3 3 4 4 3 4 5 5 5 5 5 3 1 1 1 1 2 2 1 1 1 1 2 3 6 6 8 7 6 6 4 4 5
3 3 4 4 2 1 1 2 2 1 2 3 4 4 4 3 2 1 0 2 1 0 2 2 1 1 1 1 2 2 2 3 4 6 7 7 6 5
1 2 4 4 3 1 1 2 2 3 2 2 2 3 2 2 2 1 1 1 1 1 1 1 2 1 3 2 1 2 2 1 1 1 2 6 7 7
2 5 4 3 3 3 3 3 4 3 2 2 2 2 2 2 1 2 3 2 2 1 1 1 2 2 3 3 2 1 2 1 1 1 2 2 2 3
4 5 5 3 3 2 4 4 4 2 1 2 2 2 2 2 2 1 1 2 2 2 2 2 2 3 3 3 3 2 2 2 1 2 2 3 3 3
3 4 4 4 4 4 4 3 3 3 3 2 2 2 2 2 2 2 1 2 2 1 2 2 3 3 3 4 3 2 2 2 1 1 3 4 3 3
4 4 4 4 4 3 3 4 4 3 3 3 3 3 3 3 2 2 2 2 2 2 2 2 2 3 4 3 2 3 3 2 2 2 4 4 3 2
5 4 4 3 3 3 3 3 3 3 2 3 2 2 2 3 3 3 3 3 3 2 2 2 2 3 4 3 4 4 4 3 3 3 4 4 4 3
6 5 4 4 4 4 3 3 3 3 3 3 3 3 3 3 3 3 3 3 3 3 2 2 2 3 4 4 3 3 6 5 4 4 4 5 4 2
5 5 4 4 4 3 3 3 3 3 3 3 3 3 3 3 3 4 3 3 4 4 3 3 1 3 5 4 5 4 3 6 4 5 5 6 5 5
5 5 4 4 4 3 3 4 4 3 4 4 3 4 4 4 4 4 4 3 3 4 4 3 2 4 5 5 6 5 3 3 5 7 7 6 6 6
5 4 4 4 4 4 4 5 5 4 4 4 4 4 4 4 3 3 3 3 3 4 4 4 3 3 5 5 5 5 4 4 4 4 5 7 9 9
Wind_Direction
359 11 349 37 13 311 175 208 218 169 119 102 88 61 69 69 58 72 75 74 75 74 73 72 71 69 67 66 63 60 60 60 58 57 55 53 53 50
27 32 15 33 44 39 81 172 243 159 125 105 88 78 71 87 83 82 86 89 77 76 76 75 73 71 69 68 65 62 62 64 63 60 57 56 56 55
40 52 49 33 35 69 88 101 102 117 126 114 104 99 97 87 86 89 97 96 90 82 81 77 73 71 69 67 66 64 62 62 62 61 60 59 58 58
42 47 44 61 65 51 73 96 97 105 129 127 120 111 98 93 92 88 89 90 97 95 90 83 76 73 71 68 65 63 61 61 61 60 59 58 58 59
41 42 42 52 58 69 69 87 102 109 119 130 126 112 108 106 111 106 100 95 104 119 113 101 89 82 77 72 69 67 64 62 62 62 60 56 55 56
43 42 42 48 58 82 97 100 106 119 130 133 129 128 123 126 136 129 121 110 90 93 93 104 113 106 93 83 76 73 69 65 64 65 63 60 58 57
57 56 58 53 42 36 50 83 112 127 135 134 131 128 122 134 137 142 121 124 118 107 122 125 132 120 112 104 86 73 73 72 69 68 68 65 61 59
63 70 95 89 83 73 62 61 58 91 114 132 128 133 139 140 145 158 135 137 127 121 139 118 113 103 101 91 88 84 79 81 79 74 70 68 66 63
61 51 60 82 98 108 117 120 90 73 69 109 121 128 139 138 169 167 142 123 87 108 171 114 115 113 114 104 113 106 96 90 89 88 81 74 69 67
74 70 70 71 56 62 106 102 98 88 76 93 101 110 110 126 184 163 145 146 146 126 170 148 121 123 116 125 137 140 137 130 124 120 120 116 136 124
87 72 71 85 41 6 114 113 109 113 103 89 79 94 96 101 318 180 160 174 149 133 140 261 136 148 147 145 150 166 169 170 174 175 182 215 258 234
119 108 75 69 59 11 120 119 114 104 108 124 132 148 148 142 171 221 222 213 171 149 134 247 180 204 174 157 157 166 178 181 189 193 198 217 260 265
134 124 99 98 96 34 329 107 109 144 146 147 145 145 146 148 162 151 321 289 284 258 129 225 246 252 262 173 175 173 183 172 187 190 196 205 228 272
124 110 103 113 119 130 146 108 176 235 190 152 144 145 156 158 152 159 124 325 328 337 60 259 275 283 279 266 210 184 201 194 209 219 196 186 213 225
88 78 102 152 176 167 159 187 212 211 184 174 161 157 146 122 161 167 166 174 177 176 138 250 280 275 276 283 277 230 228 214 218 249 255 234 235 230
161 143 163 192 215 150 167 192 211 206 216 195 176 161 154 159 183 172 174 187 187 153 145 186 253 268 266 280 284 268 253 252 238 263 287 277 257 253
170 185 188 186 190 188 191 196 200 187 203 207 190 182 182 184 180 168 197 227 229 210 189 197 210 229 250 270 262 263 265 260 254 262 268 270 264 255
210 204 203 205 206 203 202 194 198 203 211 215 208 207 204 201 197 195 211 234 238 235 228 219 223 222 225 199 252 266 258 264 269 253 270 277 277 274
215 214 213 214 219 220 219 216 207 188 215 226 225 219 218 213 209 213 222 231 240 242 235 230 243 257 261 248 189 231 273 279 275 270 272 279 282 286
221 223 217 215 224 231 225 219 209 195 203 221 222 224 229 228 224 226 228 238 249 252 250 238 246 263 277 291 286 221 220 256 273 279 281 278 280 270
216 222 224 225 223 222 223 222 222 217 215 226 223 226 232 235 237 238 232 207 254 260 260 256 248 249 268 270 267 257 210 206 245 279 289 289 287 276
220 222 222 227 227 225 219 221 222 216 210 223 225 224 229 235 235 242 251 242 243 259 268 265 222 238 254 262 270 271 260 226 219 229 245 261 291 297
224 226 223 219 218 221 223 222 224 219 214 223 225 225 232 235 244 247 246 256 263 267 270 268 261 256 265 266 270 276 274 262 259 245 238 214 220 239